Hays, KS

10:59 AM CDT on March 27, 2017 (GMT -0500)
Hays Regional

Weather History for KHYS - December, 2012

Change the Weather History Date:

Monday, December 17, 2012

  Actual Average Record
Temperature  
Mean Temperature 40 °F -  
Max Temperature 55 °F 40 °F 60 °F (2001)
Min Temperature 26 °F 18 °F 1 °F (2008)
Degree Days  
Heating Degree Days 24    
Moisture  
Dew Point 26 °F    
Average Humidity 68    
Maximum Humidity 93    
Minimum Humidity 33    
Precipitation  
Precipitation 0.00 in - - ()
Sea Level Pressure  
Sea Level Pressure 29.69 in    
Wind  
Wind Speed 8 mph (WSW)    
Max Wind Speed 22 mph    
Max Gust Speed 31 mph    
Visibility 9 miles    
Events      
Averages and records for this station are not official NWS values.
T = Trace of Precipitation, MM = Missing Value Source: NWS Daily Summary

Daily Weather History Graph

Daily Weather History Graph

Search for Another Location

Airport or City:

Trip Planner

Search our weather history database for the weather conditions in past years. The results will help you decide how hot, cold, wet, or windy it might be!

Date:

Astronomy

Dec. 17, 2012 Rise Set
Actual Time 7:49 AM CST 5:17 PM CST
Civil Twilight 7:20 AM CST 5:47 PM CST
Nautical Twilight 6:46 AM CST 6:20 PM CST
Astronomical Twilight 6:14 AM CST 6:52 PM CST
Moon 11:01 AM CST (12/17) 10:37 PM CST (12/17)
Length of Visible Light 10h 27m
Length of Day
9h 27m
Waxing Crescent, 25% of the Moon is Illuminated
Dec 17
Waxing Crescent
Dec 19
First Quarter
Dec 28
Full
Jan 4
Last Quarter
Jan 11
New

Hourly Weather History & Observations

Time (CST) Temp. Windchill Dew Point Humidity Pressure Visibility Wind Dir Wind Speed Gust Speed Precip Events Conditions
12:15 AM 30.2 °F 26.7 °F 26.6 °F 86% 29.81 in 10.0 mi West 3.5 mph - N/A   Overcast
12:35 AM 30.2 °F 24.3 °F 28.4 °F 93% 29.80 in 10.0 mi WSW 5.8 mph - N/A   Overcast
12:55 AM 30.2 °F 26.7 °F 28.4 °F 93% 29.79 in 10.0 mi West 3.5 mph - N/A   Partly Cloudy
1:15 AM 30.2 °F 24.3 °F 26.6 °F 86% 29.78 in 10.0 mi WSW 5.8 mph - N/A   Clear
1:35 AM 28.4 °F 21.2 °F 26.6 °F 93% 29.78 in 9.0 mi West 6.9 mph - N/A   Clear
2:15 AM 28.4 °F 21.2 °F 26.6 °F 93% 29.78 in 8.0 mi West 6.9 mph - N/A   Clear
2:35 AM 28.4 °F 19.7 °F 26.6 °F 93% 29.78 in 0.8 mi West 9.2 mph - N/A   Overcast
2:55 AM 28.4 °F 20.4 °F 26.6 °F 93% 29.77 in 1.0 mi West 8.1 mph - N/A   Overcast
3:15 AM 30.2 °F 24.3 °F 28.4 °F 93% 29.77 in 0.5 mi West 5.8 mph - N/A   Overcast
3:35 AM 30.2 °F 21.9 °F 28.4 °F 93% 29.77 in 0.5 mi West 9.2 mph - N/A   Overcast
3:55 AM 30.2 °F 23.4 °F 28.4 °F 93% 29.76 in 0.5 mi West 6.9 mph - N/A   Overcast
4:15 AM 32.0 °F 23.6 °F 28.4 °F 87% 29.76 in 0.5 mi West 10.4 mph - N/A   Overcast
4:35 AM 30.2 °F 22.6 °F 28.4 °F 93% 29.76 in 1.2 mi West 8.1 mph - N/A   Overcast
4:55 AM 30.2 °F 21.9 °F 28.4 °F 93% 29.76 in 2.0 mi West 9.2 mph - N/A   Overcast
5:15 AM 28.4 °F 21.2 °F 26.6 °F 93% 29.76 in 9.0 mi West 6.9 mph - N/A   Partly Cloudy
5:35 AM 28.4 °F 21.2 °F 24.8 °F 86% 29.76 in 10.0 mi West 6.9 mph - N/A   Scattered Clouds
5:55 AM 26.6 °F 19.1 °F 24.8 °F 93% 29.76 in 10.0 mi West 6.9 mph - N/A   Partly Cloudy
6:15 AM 28.4 °F 19.7 °F 24.8 °F 86% 29.76 in 10.0 mi WNW 9.2 mph - N/A   Clear
6:35 AM 28.4 °F 19.7 °F 24.8 °F 86% 29.76 in 10.0 mi WNW 9.2 mph - N/A   Clear
6:55 AM 28.4 °F 19.1 °F 24.8 °F 86% 29.76 in 10.0 mi WNW 10.4 mph - N/A   Clear
7:15 AM 28.4 °F 20.4 °F 23.0 °F 80% 29.76 in 10.0 mi NW 8.1 mph - N/A   Clear
7:35 AM 26.6 °F 18.2 °F 21.2 °F 80% 29.76 in 10.0 mi WNW 8.1 mph - N/A   Clear
7:55 AM 26.6 °F 17.5 °F 21.2 °F 80% 29.76 in 10.0 mi WNW 9.2 mph - N/A   Clear
8:15 AM 28.4 °F 23.3 °F 21.2 °F 74% 29.77 in 10.0 mi West 4.6 mph - N/A   Clear
8:35 AM 28.4 °F 23.3 °F 23.0 °F 80% 29.77 in 10.0 mi WSW 4.6 mph - N/A   Clear
8:55 AM 30.2 °F 25.4 °F 24.8 °F 80% 29.77 in 10.0 mi West 4.6 mph - N/A   Clear
9:15 AM 32.0 °F 26.4 °F 24.8 °F 75% 29.77 in 10.0 mi NW 5.8 mph - N/A   Clear
9:35 AM 33.8 °F 27.7 °F 26.6 °F 75% 29.77 in 10.0 mi WNW 6.9 mph - N/A   Partly Cloudy
9:55 AM 35.6 °F 31.7 °F 26.6 °F 70% 29.77 in 10.0 mi WNW 4.6 mph - N/A   Mostly Cloudy
10:15 AM 37.4 °F 30.3 °F 28.4 °F 70% 29.78 in 10.0 mi WSW 10.4 mph - N/A   Overcast
10:35 AM 35.6 °F 28.6 °F 26.6 °F 70% 29.78 in 10.0 mi West 9.2 mph - N/A   Scattered Clouds
10:55 AM 37.4 °F 32.8 °F 28.4 °F 70% 29.77 in 10.0 mi West 5.8 mph - N/A   Clear
11:15 AM 39.2 °F 35.9 °F 26.6 °F 61% 29.77 in 10.0 mi NNW 4.6 mph - N/A   Clear
11:35 AM 42.8 °F 39.3 °F 28.4 °F 57% 29.75 in 10.0 mi West 5.8 mph - N/A   Clear
11:55 AM 44.6 °F 41.4 °F 28.4 °F 53% 29.74 in 10.0 mi WSW 5.8 mph - N/A   Clear
12:15 PM 46.4 °F 42.4 °F 28.4 °F 50% 29.72 in 10.0 mi SW 8.1 mph - N/A   Clear
12:35 PM 48.2 °F - 30.2 °F 50% 29.70 in 10.0 mi SSW 9.2 mph - N/A   Clear
12:55 PM 51.8 °F - 28.4 °F 41% 29.69 in 10.0 mi SW 13.8 mph 17.3 mph N/A   Clear
1:15 PM 51.8 °F - 28.4 °F 41% 29.68 in 10.0 mi SSW 16.1 mph - N/A   Clear
1:35 PM 53.6 °F - 26.6 °F 35% 29.66 in 10.0 mi SW 17.3 mph 24.2 mph N/A   Clear
1:55 PM 53.6 °F - 28.4 °F 38% 29.65 in 10.0 mi SW 18.4 mph 24.2 mph N/A   Clear
2:15 PM 53.6 °F - 28.4 °F 38% 29.64 in 10.0 mi SW 16.1 mph 31.1 mph N/A   Clear
2:35 PM 53.6 °F - 28.4 °F 38% 29.62 in 10.0 mi WSW 20.7 mph 29.9 mph N/A   Clear
2:55 PM 53.6 °F - 28.4 °F 38% 29.61 in 10.0 mi SW 20.7 mph 28.8 mph N/A   Clear
3:15 PM 55.4 °F - 26.6 °F 33% 29.60 in 10.0 mi SW 21.9 mph 27.6 mph N/A   Clear
3:35 PM 55.4 °F - 26.6 °F 33% 29.60 in 10.0 mi SW 16.1 mph - N/A   Clear
3:55 PM 53.6 °F - 24.8 °F 33% 29.59 in 10.0 mi SW 19.6 mph 24.2 mph N/A   Clear
6:35 PM 42.8 °F 36.2 °F 26.6 °F 53% 29.59 in 10.0 mi SSW 12.7 mph - N/A   Clear
6:55 PM 42.8 °F 36.6 °F 26.6 °F 53% 29.59 in 10.0 mi SW 11.5 mph - N/A   Clear
7:15 PM 41.0 °F 34.3 °F 26.6 °F 57% 29.59 in 10.0 mi SW 11.5 mph - N/A   Clear
7:35 PM 41.0 °F 34.7 °F 26.6 °F 57% 29.59 in 10.0 mi SW 10.4 mph - N/A   Clear
7:55 PM 39.2 °F 32.5 °F 26.6 °F 61% 29.58 in 10.0 mi SSW 10.4 mph - N/A   Clear
8:15 PM 39.2 °F 32.5 °F 26.6 °F 61% 29.57 in 10.0 mi SSW 10.4 mph - N/A   Clear
8:35 PM 39.2 °F 32.0 °F 26.6 °F 61% 29.57 in 10.0 mi SSW 11.5 mph - N/A   Clear
8:55 PM 39.2 °F 32.0 °F 26.6 °F 61% 29.57 in 10.0 mi SSW 11.5 mph - N/A   Clear
9:15 PM 37.4 °F 30.3 °F 26.6 °F 65% 29.56 in 10.0 mi SW 10.4 mph - N/A   Clear
9:35 PM 37.4 °F 30.3 °F 26.6 °F 65% 29.56 in 10.0 mi WSW 10.4 mph - N/A   Clear
9:55 PM 35.6 °F 27.5 °F 24.8 °F 65% 29.56 in 10.0 mi SW 11.5 mph - N/A   Clear
10:15 PM 37.4 °F 28.5 °F 24.8 °F 60% 29.56 in 10.0 mi SW 15.0 mph - N/A   Clear
10:35 PM 37.4 °F 34.9 °F 24.8 °F 60% 29.57 in 10.0 mi NW 3.5 mph - N/A   Clear
10:55 PM 37.4 °F 32.1 °F 24.8 °F 60% 29.57 in 10.0 mi WSW 6.9 mph - N/A   Clear
11:15 PM 37.4 °F 32.1 °F 24.8 °F 60% 29.57 in 10.0 mi West 6.9 mph - N/A   Clear
11:35 PM 37.4 °F 32.8 °F 26.6 °F 65% 29.57 in 10.0 mi NW 5.8 mph - N/A   Clear
11:55 PM 37.4 °F 29.8 °F 24.8 °F 60% 29.57 in 10.0 mi WSW 11.5 mph - N/A   Clear